FW4776 Weather Reports


time (UTC)temp
F
wind
direction
speed
knots
gust
knots
rain 1hr
in
rain 24hr
in
rain mn
in
humidity
%
barometer
mb
20240418160903 67 327 0.9 2.6 0.00 0.00 0.00 36 1013.7
20240418160003 66 310 1.7 3.5 0.00 0.00 0.00 38 1013.8
20240418155403 66 308 0.9 3.5 0.00 0.00 0.00 39 1013.8
20240418154503 66 299 0.9 3.5 0.00 0.00 0.00 40 1013.7
20240418153604 66 285 1.7 4.3 0.00 0.00 0.00 37 1013.7
20240418152703 69 288 0.0 1.7 0.00 0.00 0.00 30 1013.5
20240418151803 67 173 0.9 1.7 0.00 0.00 0.00 35 1013.5
20240418150903 66 182 0.0 1.7 0.00 0.00 0.00 37 1013.5
20240418150003 64 0 0.0 0.0 0.00 0.00 0.00 43 1013.4
20240418145404 63 0 0.0 0.0 0.00 0.00 0.00 45 1013.4
20240418144503 62 0 0.0 0.0 0.00 0.00 0.00 47 1013.3
20240418143603 61 0 0.0 0.0 0.00 0.00 0.00 45 1013.3
20240418142703 59 65 0.0 1.7 0.00 0.00 0.00 46 1013.2
20240418141803 58 58 0.0 1.7 0.00 0.00 0.00 50 1013.1
20240418140903 57 53 0.0 0.9 0.00 0.00 0.00 46 1013.2
20240418140003 56 53 0.0 0.9 0.00 0.00 0.00 48 1013.1
20240418135403 55 50 0.9 0.9 0.00 0.00 0.00 49 1012.9
20240418134503 55 61 0.9 1.7 0.00 0.00 0.00 48 1013.1
20240418133814 56 112 0.0 0.9 0.00 0.00 0.00 49 1012.9
20240418132703 56 112 0.0 0.9 0.00 0.00 0.00 44 1012.7
20240418131804 56 115 0.0 0.9 0.00 0.00 0.00 45 1012.5
20240418130903 57 201 0.0 0.9 0.00 0.00 0.00 43 1012.4
20240418130214 58 202 0.0 0.9 0.00 0.00 0.00 42 1012.4
20240418125404 58 197 0.9 2.6 0.00 0.00 0.00 42 1012.3
20240418124713 59 201 1.7 3.5 0.00 0.00 0.00 42 1012.2
20240418123603 58 182 1.7 2.6 0.00 0.00 0.00 42 1012.0
20240418122703 59 204 0.9 2.6 0.00 0.00 0.00 41 1011.9
20240418121803 59 213 0.9 1.7 0.00 0.00 0.00 41 1011.8
20240418120903 60 181 1.7 2.6 0.00 0.00 0.00 40 1011.7
20240418120003 60 170 1.7 2.6 0.00 0.00 0.00 40 1011.7
20240418115616 60 164 0.9 2.6 0.00 0.00 0.00 40 1011.7
20240418114503 60 138 0.0 1.7 0.00 0.00 0.00 41 1011.8
20240418113603 60 172 1.7 4.3 0.00 0.00 0.00 41 1011.8
20240418112913 59 186 2.6 4.3 0.00 0.00 0.00 43 1011.8
20240418111803 58 221 0.9 2.6 0.00 0.00 0.00 43 1011.7
20240418110903 60 104 0.0 1.7 0.00 0.00 0.00 41 1011.7
20240418110003 61 122 1.7 3.5 0.00 0.00 0.00 40 1011.8
20240418105403 61 110 1.7 3.5 0.00 0.00 0.00 40 1011.8
20240418104714 61 93 0.9 2.6 0.00 0.00 0.00 39 1011.6
20240418103603 61 95 1.7 3.5 0.00 0.00 0.00 38 1011.7
20240418102703 60 98 0.9 3.5 0.00 0.00 0.00 40 1011.8
20240418101803 57 74 0.0 0.9 0.00 0.00 0.00 44 1011.6
20240418095403 57 0 0.0 0.0 0.00 0.00 0.00 44 1011.7
20240418094504 58 30 0.0 0.9 0.00 0.00 0.00 42 1011.7
20240418093604 57 336 0.0 1.7 0.00 0.00 0.00 43 1011.7
20240418092703 57 298 0.9 1.7 0.00 0.00 0.00 42 1011.6
20240418091804 57 288 1.7 3.5 0.00 0.00 0.00 42 1011.6
20240418090903 57 360 0.9 1.7 0.00 0.00 0.00 42 1011.5
20240418090003 57 30 0.9 1.7 0.00 0.00 0.00 42 1011.6
20240418085404 57 56 0.9 2.6 0.00 0.00 0.00 42 1011.6
20240418084503 57 39 0.9 1.7 0.00 0.00 0.00 42 1011.6
20240418083603 57 3 0.9 1.7 0.00 0.00 0.00 42 1011.8
20240418082703 57 358 0.9 2.6 0.00 0.00 0.00 41 1011.8
20240418081803 58 336 0.0 0.9 0.00 0.00 0.00 39 1011.9
20240418080904 58 240 0.0 0.9 0.00 0.00 0.00 37 1011.8
20240418080003 59 233 1.7 4.3 0.00 0.00 0.00 37 1011.7
20240418075613 59 236 1.7 5.2 0.00 0.00 0.00 37 1011.7
20240418074504 60 211 0.0 0.9 0.00 0.00 0.00 36 1011.8
20240418073603 60 190 0.0 0.9 0.00 0.00 0.00 36 1011.6
20240418072703 60 101 0.9 0.9 0.00 0.00 0.00 35 1011.6
20240418072013 60 106 0.9 1.7 0.00 0.00 0.00 35 1011.6
20240418070903 60 120 0.0 0.9 0.00 0.00 0.00 36 1011.6
20240418070003 61 115 0.9 1.7 0.00 0.00 0.00 34 1011.9
20240418065403 61 106 1.7 3.5 0.00 0.00 0.00 34 1011.9
20240418064716 62 121 1.7 3.5 0.00 0.00 0.00 33 1011.9
20240418063603 62 181 0.9 3.5 0.00 0.00 0.00 32 1012.0
20240418062703 62 177 0.9 3.5 0.00 0.00 0.00 32 1011.9
20240418062013 62 182 0.0 1.7 0.00 0.00 0.00 32 1011.8
20240418061116 63 203 0.9 2.6 0.00 0.00 0.00 31 1011.8
20240418060213 64 214 0.9 2.6 0.00 0.00 0.00 31 1011.6
20240418055615 65 219 0.0 1.7 0.00 0.00 0.00 30 1011.7
20240418054717 66 226 0.9 2.6 0.00 0.00 0.00 29 1011.6
20240418053603 68 111 1.7 3.5 0.00 0.00 0.00 26 1011.7
20240418052703 68 113 2.6 4.3 0.00 0.00 0.00 26 1011.7
20240418052014 69 113 2.6 3.5 0.00 0.00 0.00 25 1011.7
20240418050903 68 109 2.6 4.3 0.00 0.00 0.00 26 1011.8
20240418050004 69 110 2.6 5.2 0.00 0.00 0.00 25 1011.8
20240418045403 70 100 3.5 5.2 0.00 0.00 0.00 24 1011.8
20240418044713 70 94 3.5 5.2 0.00 0.00 0.00 24 1011.8
20240418043603 71 106 3.5 6.1 0.00 0.00 0.00 25 1011.9
20240418042703 71 98 4.3 7.8 0.00 0.00 0.00 24 1011.9
20240418041803 71 99 2.6 5.2 0.00 0.00 0.00 25 1011.8
20240418040903 71 105 3.5 7.0 0.00 0.00 0.00 25 1011.7
20240418040004 72 115 3.5 7.0 0.00 0.00 0.00 25 1011.6
20240418035403 72 110 3.5 7.8 0.00 0.00 0.00 25 1011.6
20240418034504 72 96 3.5 6.1 0.00 0.00 0.00 25 1011.7
20240418033603 72 95 3.5 6.1 0.00 0.00 0.00 25 1011.6
20240418032913 72 100 3.5 6.1 0.00 0.00 0.00 25 1011.6
20240418031804 72 97 2.6 4.3 0.00 0.00 0.00 25 1011.4
20240418030904 72 94 1.7 3.5 0.00 0.00 0.00 25 1011.4
20240418030003 73 100 1.7 2.6 0.00 0.00 0.00 24 1011.3
20240418025403 74 102 0.9 1.7 0.00 0.00 0.00 22 1011.3
20240418024504 75 104 0.9 1.7 0.00 0.00 0.00 22 1011.3
20240418023603 76 116 0.0 1.7 0.00 0.00 0.00 21 1011.2
20240418022704 77 153 0.0 0.9 0.00 0.00 0.00 20 1011.1
20240418021803 79 0 0.0 0.0 0.00 0.00 0.00 17 1011.1
20240418020903 80 209 0.0 0.9 0.00 0.00 0.00 16 1011.1
20240418020216 81 211 0.9 2.6 0.00 0.00 0.00 16 1011.1
20240418015403 82 202 0.9 2.6 0.00 0.00 0.00 16 1011.2
20240418014504 81 224 0.0 1.7 0.00 0.00 0.00 17 1011.2
20240418013603 81 224 0.9 2.6 0.00 0.00 0.00 16 1011.4
20240418012703 81 222 1.7 5.2 0.00 0.00 0.00 16 1011.4
20240418011803 81 224 2.6 4.3 0.00 0.00 0.00 16 1011.5
20240418010903 82 231 2.6 5.2 0.00 0.00 0.00 15 1011.5
20240418010216 82 232 3.5 7.8 0.00 0.00 0.00 15 1011.5
20240418005404 82 226 4.3 8.7 0.00 0.00 0.00 15 1011.6
20240418004503 84 223 1.7 7.0 0.00 0.00 0.00 15 1011.6
20240418003603 84 269 1.7 6.1 0.00 0.00 0.00 16 1011.6
20240418002703 84 233 1.7 6.1 0.00 0.00 0.00 14 1011.6
20240418001803 85 211 2.6 5.2 0.00 0.00 0.00 15 1011.6
20240418000903 85 208 2.6 7.0 0.00 0.00 0.00 15 1011.6
20240418000003 85 218 2.6 6.1 0.00 0.00 0.00 15 1011.7
20240417235403 85 214 1.7 5.2 0.00 0.00 0.00 14 1011.6
20240417234504 85 184 3.5 7.8 0.00 0.00 0.00 15 1011.7
20240417233603 84 156 3.5 7.8 0.00 0.00 0.00 16 1011.7
20240417232703 85 151 3.5 8.7 0.00 0.00 0.00 16 1011.7
20240417232013 86 153 1.7 5.2 0.00 0.00 0.00 16 1011.9
20240417231115 85 257 0.9 3.5 0.00 0.00 0.00 15 1012.0
20240417230003 85 258 1.7 4.3 0.00 0.00 0.00 16 1011.9
20240417225403 86 170 2.6 6.1 0.00 0.00 0.00 16 1012.1
20240417224503 85 104 1.7 6.1 0.00 0.00 0.00 16 1012.3
20240417223603 84 48 2.6 5.2 0.00 0.00 0.00 17 1012.4
20240417222703 84 86 2.6 6.1 0.00 0.00 0.00 17 1012.4
20240417221803 84 131 3.5 6.1 0.00 0.00 0.00 17 1012.5
20240417220904 84 358 2.6 4.3 0.00 0.00 0.00 17 1012.6
20240417220003 84 133 1.7 4.3 0.00 0.00 0.00 16 1012.6
20240417215615 84 170 1.7 5.2 0.00 0.00 0.00 16 1012.8
20240417214504 84 240 2.6 5.2 0.00 0.00 0.00 16 1012.9
20240417213603 83 287 2.6 6.1 0.00 0.00 0.00 17 1013.0
20240417212703 82 278 2.6 5.2 0.00 0.00 0.00 18 1013.2
20240417211803 83 227 2.6 6.1 0.00 0.00 0.00 17 1013.4
20240417210903 83 224 2.6 7.0 0.00 0.00 0.00 17 1013.4
20240417210003 82 294 2.6 9.6 0.00 0.00 0.00 17 1013.4
20240417205403 84 230 1.7 5.2 0.00 0.00 0.00 17 1013.5
20240417204504 83 247 1.7 4.3 0.00 0.00 0.00 17 1013.6
20240417203815 84 256 0.9 3.5 0.00 0.00 0.00 17 1013.5
20240417202703 84 190 0.9 4.3 0.00 0.00 0.00 17 1013.6
20240417201803 82 191 4.3 9.6 0.00 0.00 0.00 16 1013.7
20240417201117 82 287 2.6 5.2 0.00 0.00 0.00 18 1013.7
20240417200004 83 332 0.9 4.3 0.00 0.00 0.00 17 1013.9
20240417195403 82 223 0.9 3.5 0.00 0.00 0.00 18 1014.1
20240417194503 81 244 0.9 4.3 0.00 0.00 0.00 18 1014.2
20240417193603 79 294 1.7 4.3 0.00 0.00 0.00 19 1014.3
20240417192703 78 327 1.7 5.2 0.00 0.00 0.00 20 1014.5
20240417191804 78 306 2.6 5.2 0.00 0.00 0.00 19 1014.6
20240417190903 79 303 2.6 4.3 0.00 0.00 0.00 19 1014.6
20240417190003 79 102 1.7 4.3 0.00 0.00 0.00 20 1014.8
20240417185404 79 117 1.7 4.3 0.00 0.00 0.00 20 1014.9
20240417184504 79 137 1.7 4.3 0.00 0.00 0.00 20 1015.0
20240417183816 78 106 1.7 3.5 0.00 0.00 0.00 20 1015.2
20240417182703 78 252 0.9 3.5 0.00 0.00 0.00 20 1015.3
20240417182016 76 254 0.9 3.5 0.00 0.00 0.00 21 1015.4
20240417180904 75 323 1.7 2.6 0.00 0.00 0.00 21 1015.6
20240417180003 74 353 1.7 2.6 0.00 0.00 0.00 22 1015.7
20240417175403 74 1 0.9 2.6 0.00 0.00 0.00 22 1015.7
20240417174503 73 309 0.9 3.5 0.00 0.00 0.00 23 1015.9
20240417173603 72 325 1.7 5.2 0.00 0.00 0.00 23 1016.0
20240417172703 71 326 1.7 4.3 0.00 0.00 0.00 25 1016.1
20240417172017 70 318 2.6 4.3 0.00 0.00 0.00 26 1016.1
20240417170903 70 291 2.6 4.3 0.00 0.00 0.00 27 1016.1
20240417170003 70 327 1.7 3.5 0.00 0.00 0.00 28 1016.1
20240417165613 70 319 0.9 3.5 0.00 0.00 0.00 29 1016.1
20240417164503 69 241 1.7 3.5 0.00 0.00 0.00 28 1016.0
20240417163603 68 264 0.9 2.6 0.00 0.00 0.00 29 1016.0
20240417162703 66 304 0.9 2.6 0.00 0.00 0.00 31 1015.9
20240417161803 65 309 0.9 1.7 0.00 0.00 0.00 31 1015.9